Regional Weather Roundup
Issued by NWS Goodland, KS

Home | Current Version | Previous Version | Text Only | Print | Product List | Glossary Off
Versions: 1 2 3 4 5 6 7 8 9 10 11 12 13 14 15 16 17 18 19 20 21 22 23 24 25 26 27 28 29 30 31 32 33 34 35 36 37 38 39 40 41 42 43 44 45 46 47 48 49 50

000
ASUS43 KGLD 302208
RWRGLD

GOODLAND FORECAST AREA HOURLY WEATHER ROUNDUP
NATIONAL WEATHER SERVICE GOODLAND KS
400 PM MDT TUE JUN 30 2015

...OFFICIAL OBSERVATIONS...

CITY           SKY/WX    TMP DP  RH WIND       PRES   REMARKS
GOODLAND KS    SUNNY     95  48  20 S9        29.96F
HILL CITY KS   MOSUNNY  102  46  15 W13       29.85F
IMPERIAL NEB   SUNNY     95  52  23 SW7       29.90F
MCCOOK NEB     MOSUNNY  100  49  17 SW8       29.87F
AKRON CO       SUNNY     93  47  20 VRB6      30.01F
BURLINGTON CO  LGT RAIN  95  47  19 SW15G22   30.00F
LIMON CO       SUNNY     86  52  30 VRB6      30.09F
$$

...UNOFFICIAL OBSERVATIONS...

CITY           SKY/WX    TMP DP  RH WIND       PRES   REMARKS
COLBY KS       SUNNY     99  54  22 SW15      29.93F
GOVE KS          N/A    100  32   9 MISG        N/A
NORTON KS      SUNNY     99  36  11 S14       29.84F
SHARON SPRINGS   N/A     98  47  17 S6G17       N/A
KIT CARSON CO    N/A     93  51  23 MISG        N/A
$$



USA.gov is the U.S. government's official web portal to all federal, state and local government web resources and services.